Location: Newark
(40.9833°N, 0.0333°W)
Time: 17:36:08
(UTC+00:00)

Transit 4A - Pass Details

Date: 04 November 2020
Orbit: 862 x 982 km, 66.8° (Epoch: 28 November)

Event Time Altitude Azimuth Distance (km) Brightness Sun altitude
Rises 14:32:55 0° 239° (WSW) 3,601 12.4 21.2°
Reaches altitude 10° 14:35:42 10° 249° (WSW) 2,677 11.7 20.8°
Maximum altitude 14:41:17 33° 311° (NW) 1,578 9.4 20.0°
Drops below altitude 10° 14:46:59 10° 14° (NNE) 2,737 9.9 19.3°
Sets 14:49:53 0° 24° (NNE) 3,693 10.5 18.9°
